Orbital Elements at Epoch 2459200.5 (2020-Dec-17.0) TDB
Reference: JPL 16 (heliocentric ecliptic J2000)
Element | Value | Uncertainty (1-sigma) | Units |
e | .2199110488172774 | 5.2811e-08 | |
a | 2.344306118059683 | 1.0445e-08 | au |
q | 1.828767300888418 | 1.2493e-07 | au |
i | 5.335254511313959 | 4.7127e-06 | deg |
node | 125.1412925479802 | 5.6663e-05 | deg |
peri | 223.53875643592 | 5.7378e-05 | deg |
M | 229.7055649085293 | 8.4634e-06 | deg |
tp | 2459675.007711528925 (2022-Apr-05.50771153) | 3.1471e-05 | TDB |
period | 1311.051972637895 3.59 | 8.7622e-06 2.399e-08 | d yr |
n | .2745886566767173 | 1.8352e-09 | deg/d |
Q | 2.859844935230948 | 1.2742e-08 | au |
|
| | Orbit Determination Parameters
Additional Information
|